Вернуться в каталог

CZ-2C R/B

АктивенSSO
NORAD 36089·ROCKET BODY·🇨🇳 China

Запущен Nov 12, 2009 с Jiuquan Satellite Launch Center

Loading…

Ближайшие Пролёты (ближайшие 24 часа)

TLE

СвежийSource: Space-Track

Эпоха: Sep 14, 2026, 22:33 UTC

1 36089U 09061B   26257.94001181  .00000148  00000-0  46526-4 0  9998
2 36089  98.4679 236.4502 0078786 126.1710 234.6806 14.52452338891113

Отслеживайте CZ-2C R/B в реальном времени с AllMySat

Download on the App Store